Regional Weather Roundup
Issued by NWS

Home | Current Version | Previous Version | Text Only | Print | Product List | Glossary Off
Versions: 1 2 3 4 5 6 7 8 9 10 11 12 13 14 15 16 17 18 19 20 21 22 23 24 25 26 27 28 29 30 31 32 33 34 35 36 37 38 39 40 41 42 43 44 45 46 47 48 49 50

000
ASUS43 KLSX 231159
RWRMO

WEATHER SUMMARY FOR MISSOURI
NATIONAL WEATHER SERVICE SPRINGFIELD MO
700 AM CDT WED JUL 23 2014

NOTE: "FAIR" INDICATES FEW OR NO CLOUDS BELOW 12,000 FEET WITH NO
       SIGNIFICANT WEATHER AND/OR OBSTRUCTIONS TO VISIBILITY.
       CURRENT SKY AND/OR WEATHER CONDITIONS ARE NOT AVAILABLE FOR
       CHILLICOTHE AND FARMINGTON.

MOZ001>031-035>038-043-044-053-054-231300-
...NORTHERN AND WESTERN MISSOURI...

CITY           SKY/WX    TMP DP  RH WIND       PRES   REMARKS
KANSAS CTY INT PTCLDY    71  67  87 N8        30.16R
6HR MIN TEMP:  70; 6HR MAX TEMP:  81;

KANSAS C DTWN  MOCLDY    76  67  73 N10       30.13R
6HR MIN TEMP:  76; 6HR MAX TEMP:  84;

LEE`S SUMMIT   PTCLDY    75  67  76 NE7       30.13S
6HR MIN TEMP:  75; 6HR MAX TEMP:  83;

ST JOSEPH      CLEAR     68  65  90 N6        30.16R
6HR MIN TEMP:  67; 6HR MAX TEMP:  77;

CHILLICOTHE      N/A     71  66  84 VRB5      30.14R
6HR MIN TEMP:  70; 6HR MAX TEMP:  81;

KIRKSVILLE     CLEAR     70  65  84 N9        30.13R
6HR MIN TEMP:  68; 6HR MAX TEMP:  77;


$$
MOZ066>068-077>081-088>096-101>105-231300-
...SOUTHWEST MISSOURI...

CITY           SKY/WX    TMP DP  RH WIND       PRES   REMARKS
SPRINGFIELD    CLEAR     77  74  90 CALM      30.09R FOG
6HR MIN TEMP:  76; 6HR MAX TEMP:  80;

JOPLIN         CLEAR     77  75  93 SW7       30.09R FOG
6HR MIN TEMP:  76; 6HR MAX TEMP:  82;


$$
MOZ032>034-039>042-045>050-055>058-069>072-231300-
...CENTRAL MISSOURI...

CITY           SKY/WX    TMP DP  RH WIND       PRES   REMARKS
COLUMBIA       CLEAR     75  71  87 N9        30.08R
6HR MIN TEMP:  75; 6HR MAX TEMP:  82;

JEFFERSON CITY PTCLDY    79  72  79 N8        30.06R
6HR MIN TEMP:  78; 6HR MAX TEMP:  81;

ROLLA          CLOUDY    77  74  90 CALM      30.05R
6HR MIN TEMP:  73; 6HR MAX TEMP:  79;

SEDALIA        CLEAR     75  70  84 N9        30.11R
6HR MIN TEMP:  74; 6HR MAX TEMP:  83;

OSAGE BEACH    CLOUDY    79  75  89 N5        30.06R

$$
MOZ051-052-059>065-231300-
...EAST CENTRAL MISSOURI...

CITY           SKY/WX    TMP DP  RH WIND       PRES   REMARKS
ST LOUIS INTL  MOSUNNY   80  75  84 N7        30.01S
6HR MIN TEMP:  80; 6HR MAX TEMP:  83;

SPIRIT OF STL  MOSUNNY   79  75  87 N3        30.00S
6HR MIN TEMP:  75; 6HR MAX TEMP:  81;

ST CHARLES     SUNNY     78  74  87 NW9       30.00R
6HR MIN TEMP:  75; 6HR MAX TEMP:  78;


$$
MOZ072>076-082>087-097>100-106>115-231300-
...SOUTH CENTRAL AND SOUTHEAST MISSOURI...

CITY           SKY/WX    TMP DP  RH WIND       PRES   REMARKS
CAPE GIRARDEAU MOSUNNY   74  70  87 CALM      30.03F FOG
6HR MIN TEMP:  68; 6HR MAX TEMP:  74;

FARMINGTON     MOSUNNY   73  68  83 CALM      30.05S
6HR MIN TEMP:  73; 6HR MAX TEMP:  75;

POPLAR BLUFF   MOSUNNY   73  69  87 CALM      30.03S FOG
6HR MIN TEMP:  71; 6HR MAX TEMP:  73;

WEST PLAINS    CLEAR     73  69  87 W3        30.08F
6HR MIN TEMP:  72; 6HR MAX TEMP:  76;


$$



USA.gov is the U.S. government's official web portal to all federal, state and local government web resources and services.